Weather History for Bournemouth, United Kingdom

Change the Weather History Date:

Tuesday, October 9, 2012

  Actual Average Record
Temperature  
Mean Temperature 52 °F -  
Max Temperature 53 °F 57 °F 69 °F (2006)
Min Temperature 51 °F 42 °F 35 °F (2005)
Degree Days  
Heating Degree Days 13    
Growing Degree Days 2 (Base 50)    
Moisture  
Dew Point 52 °F    
Average Humidity 96    
Maximum Humidity 100    
Minimum Humidity 92    
Precipitation  
Precipitation 0.51 in 0.11 in - ()
Sea Level Pressure  
Sea Level Pressure 29.97 in    
Wind  
Wind Speed 7 mph ()    
Max Wind Speed 10 mph    
Max Gust Speed -    
Visibility 3.3 miles    
Events Rain    
Averages and records for this station are not official NWS values.
T = Trace of Precipitation, MM = Missing Value Source: Averaged Metar Reports

Daily Weather History Graph

Daily Weather History Graph

Search for Another Location

Airport:

Trip Planner

Search our weather history database for the weather conditions in past years. The results will help you decide how hot, cold, wet, or windy it might be!

Date:

Astronomy

Oct. 09, 2012 Rise Set
Actual Time 7:20 AM BST 6:27 PM BST
Civil Twilight 6:48 AM BST 6:59 PM BST
Nautical Twilight 6:10 AM BST 7:37 PM BST
Astronomical Twilight 5:31 AM BST 8:16 PM BST
Moon 12:04 AM BST (10/9) 3:20 PM BST (10/9)
Length of Visible Light 12h 11m
Length of Day
11h 06m
Last Quarter, 39% of the Moon is Illuminated
Oct 9
Last Quarter
Oct 15
New
Oct 22
First Quarter
Oct 29
Full
Nov 7
Last Quarter

Hourly Weather History & Observations

Time (BST) Temp. Dew Point Humidity Pressure Visibility Wind Dir Wind Speed Gust Speed Precip Events Conditions
12:50 AM 53 °F 52 °F 95% 29.93 in 4 mi NNW 6.9 mph - -   Mist
1:20 AM 53.6 °F 51.8 °F 94% 29.92 in 6.2 mi North 6.9 mph - N/A   Scattered Clouds
1:50 AM 53.6 °F 51.8 °F 94% 29.92 in 3.7 mi North 4.6 mph - N/A   Mostly Cloudy
2:20 AM 53.6 °F 51.8 °F 94% 29.92 in 3.7 mi NNE 4.6 mph - N/A   Mostly Cloudy
2:50 AM 53.6 °F 51.8 °F 94% 29.92 in 3.7 mi NE 5.8 mph - N/A   Mostly Cloudy
3:50 AM 53 °F 52 °F 93% 29.95 in 6 mi NE 5.8 mph - -   Mist
5:20 AM 53.6 °F 51.8 °F 94% 29.95 in 3.7 mi ENE 4.6 mph - N/A   Mostly Cloudy
5:50 AM 51.8 °F 51.8 °F 100% 29.95 in 3.7 mi ENE 3.5 mph - N/A   Mostly Cloudy
6:20 AM 51.8 °F 51.8 °F 100% 29.95 in 3.7 mi NE 5.8 mph - N/A   Mostly Cloudy
6:50 AM 53 °F 51 °F 92% 29.97 in 3 mi NE 5.8 mph - -   Mist
6:50 AM 53.6 °F 51.8 °F 94% 29.95 in 3.7 mi NE 5.8 mph - N/A   Partly Cloudy
7:20 AM 53.6 °F 51.8 °F 94% 29.95 in 2.8 mi NE 6.9 mph - N/A   Mostly Cloudy
7:50 AM 53.6 °F 51.8 °F 94% 29.98 in 2.8 mi NE 6.9 mph - N/A   Mostly Cloudy
8:20 AM 51.8 °F 51.8 °F 100% 29.98 in - ENE 8.1 mph - N/A   Mostly Cloudy
9:20 AM 51.8 °F 51.8 °F 100% 29.98 in 1.9 mi ENE 9.2 mph - N/A   Mostly Cloudy
9:50 AM 52 °F 51 °F 95% 30.01 in 1 mi ENE 9.2 mph - - Rain Heavy Drizzle
9:50 AM 51.8 °F 51.8 °F 100% 30.01 in 1.0 mi ENE 9.2 mph - N/A   Mostly Cloudy
10:20 AM 51.8 °F 51.8 °F 100% 30.01 in 1.2 mi ENE 9.2 mph - N/A   Mostly Cloudy
10:50 AM 51.8 °F 51.8 °F 100% 30.01 in 1.4 mi ENE 9.2 mph - N/A   Mostly Cloudy
11:20 AM 51.8 °F 51.8 °F 100% 30.01 in 1.2 mi ENE 9.2 mph - N/A   Mostly Cloudy
11:50 AM 51.8 °F 51.8 °F 100% 30.01 in 1.4 mi ENE 9.2 mph - N/A   Mostly Cloudy
12:20 PM 51.8 °F 51.8 °F 100% 30.01 in 1.0 mi ENE 10.4 mph - N/A Rain Mostly Cloudy
12:50 PM 52 °F 51 °F 95% 30.00 in 1 mi ENE 8.1 mph - - Rain Heavy Rain
12:50 PM 51.8 °F 51.8 °F 100% 29.98 in 1.2 mi ENE 8.1 mph - N/A Rain Mostly Cloudy
1:20 PM 53.6 °F 51.8 °F 94% 29.98 in 1.6 mi ENE 10.4 mph - N/A Rain Mostly Cloudy
1:50 PM 53.6 °F 51.8 °F 94% 29.98 in 3.1 mi ENE 10.4 mph - N/A Rain Mostly Cloudy
2:20 PM 53.6 °F 51.8 °F 94% 29.98 in 3.1 mi ENE 8.1 mph - N/A Rain Mostly Cloudy
3:20 PM 53.6 °F 51.8 °F 94% 29.98 in - East 9.2 mph - N/A Rain Mostly Cloudy
3:50 PM 53 °F 52 °F 94% 29.98 in 3 mi ENE 10.4 mph - - Rain Rain
3:50 PM 53.6 °F 51.8 °F 94% 29.98 in 2.8 mi ENE 10.4 mph - N/A Rain Mostly Cloudy
4:20 PM 53.6 °F 51.8 °F 94% 29.98 in 2.8 mi East 8.1 mph - N/A Rain Mostly Cloudy
4:50 PM 53.6 °F 51.8 °F 94% 29.98 in 3.1 mi ENE 8.1 mph - N/A Rain Mostly Cloudy
5:20 PM 51.8 °F 51.8 °F 100% 29.98 in 2.5 mi ENE 8.1 mph - N/A Rain Mostly Cloudy
5:50 PM 51.8 °F 51.8 °F 100% 29.98 in 2.5 mi ENE 8.1 mph - N/A Rain Mostly Cloudy
6:20 PM 53.6 °F 51.8 °F 94% 29.98 in 2.8 mi East 6.9 mph - N/A Rain Mostly Cloudy
6:50 PM 53 °F 52 °F 95% 29.98 in 4 mi East 6.9 mph - - Rain Light Drizzle
6:50 PM 53.6 °F 51.8 °F 94% 29.98 in 3.7 mi East 5.8 mph - N/A Rain Light Rain
7:20 PM 53.6 °F 51.8 °F 94% 29.98 in 3.7 mi East 6.9 mph - N/A   Mostly Cloudy
7:50 PM 53.6 °F 51.8 °F 94% 29.98 in 4.3 mi East 9.2 mph - N/A   Mostly Cloudy
8:20 PM 53.6 °F 51.8 °F 94% 29.98 in 5.0 mi East 6.9 mph - N/A   Mostly Cloudy
8:50 PM 53.6 °F 51.8 °F 94% 29.98 in 6.2 mi East 6.9 mph - N/A   Mostly Cloudy
9:20 PM 51.8 °F 50.0 °F 94% 29.98 in 6.2 mi East 8.1 mph - N/A   Mostly Cloudy
9:50 PM 52 °F 50 °F 92% 29.99 in 9 mi East 8.1 mph - - Rain Light Rain
9:50 PM 51.8 °F 50.0 °F 94% 29.98 in 6.2 mi East 8.1 mph - N/A   Overcast
10:20 PM 51.8 °F 50.0 °F 94% 29.98 in 3.7 mi East 8.1 mph - N/A   Mostly Cloudy
10:50 PM 51.8 °F 50.0 °F 94% 29.98 in 3.1 mi ENE 5.8 mph - N/A   Light Drizzle